STARLINK-36274, 68251

Orbit data source: Space-Track

STARLINK-36274, 68251 is a payload satellite owned by SpaceX/Seattle (US) in LEO that was launched on Tue, 17 Mar 2026 UTC via an FALCON 9 launch vehicle from the Air Force Eastern Test Range (AFETR). Payload-class satellites include a variety of spacecraft equipped with specific instruments for various scientific and technological missions. These include communications satellites like Starlink; space stations such as the ISS; scientific satellites like the Hubble; Earth observation satellites from companies like Planet Labs, Umbra, and HawkEye 360; GPS; miniature CubeSats for education and research; and military/defense satellites.

Loading next visibility...
Identifier
68251, 2026-054V
Orbit
LEO
Country
Flag of USUS
Related business
Manufacturer
SpaceX/Seattle
Mission
Operational spacecraft
Bus & Motor
STARLINK V2MO, Unknown motor
Mass
575 kg wet, ~530 kg dry
Launch date (UTC)
2026-03-17 (2 months ago)
Launch vehicle
FALCON 9
Launch site
Air Force Eastern Test Range (AFETR)
Object type
Payload
Rocket body
Debris
Shape & HBR
Unknown shape, 17.7 m
Radar Cross Section
RCS unknown

Expand to show TLE details & history
Last TLE update: 20 hours ago

TLE from 20 hours ago
0 STARLINK-36274
1 68251U 26054V   26144.92221248  .00013098  00000-0  45348-3 0  9994
2 68251  53.1573 302.7892 0000920  83.7010 276.4095 15.30206134 10660
Epoch: 2026-05-24T22:07Z
TLE epoch observation values (Epoch: 2026-05-24T22:07:59.158Z)
Latitude
-0.00005°
Longitude
88.27526°
Altitude
476.026 km
Speed
7.629 km/s
True Right ascension
20h 11m 09s
True Declination
0° 00' 00"
Sunlit
Object was in full shadow at epoch
Visualization orbit readout
Latitude
Unknown
Longitude
Unknown
Altitude
Unknown
Speed
Unknown
Apparent Right ascension
Unknown
Apparent Declination
Unknown
Sunlit
N/A
Visualization observer readout
Local Sidereal Time
03:04:17
Azimuth
Unknown
Elevation
Unknown
Doppler factor
Unknown
Orbital elements
Apogee altitude
476.084 km
Perigee altitude
474.823 km
Semi-major axis
6,853.591 km
Eccentricity
0.00009
Inclination
53.1573°
RAAN
302.7892°
Arg. of periapsis
83.701°
True anomaly
276.39902°
Mean anomaly
276.4095°
Eccentric anomaly
276.40426°
Mean motion
3.8253 °/min
Orbital period
94.11 mins
BSTAR
0.00045348
Loading maneuver chart data...
Computing Atmospheric mass density...
Loading historical data...
Loading historical data...
Loading historical data...
Loading historical data...
Loading historical data...
Loading historical data...
Loading historical data...

Documentation

Showing up to 5 results
|